STARLINK-1801, 46701

Orbit data source: Space-Track

STARLINK-1801, 46701 is a payload satellite owned by SpaceX/Seattle (US) in LEO that was launched on Sun, 18 Oct 2020 UTC via an FALCON 9 launch vehicle from the Air Force Eastern Test Range (AFETR). Payload-class satellites include a variety of spacecraft equipped with specific instruments for various scientific and technological missions. These include communications satellites like Starlink; space stations such as the ISS; scientific satellites like the Hubble; Earth observation satellites from companies like Planet Labs, Umbra, and HawkEye 360; GPS; miniature CubeSats for education and research; and military/defense satellites.

Loading next visibility...
Identifier
46701, 2020-073AH
Orbit
LEO
Country
Flag of USUS
Related business
Manufacturer
SpaceX/Seattle
Mission
Partially operational Commercial Communications
Bus & Motor
STARLINK, Unknown motor
Mass
260 kg wet, ~248 kg dry
Launch date (UTC)
2020-10-18 (5 years ago)
Launch vehicle
FALCON 9
Launch site
Air Force Eastern Test Range (AFETR)
Object type
Payload
Rocket body
Debris
Shape & HBR
Box + 1 Pan, 10.1 m
Radar Cross Section
13.562 m², Large (>1 m²)

Expand to show TLE details & history
Last TLE update: 7 hours ago

TLE from 7 hours ago
0 STARLINK-1801
1 46701U 20073AH  25308.66670139  .01501090  00000-0  37167-1 0  9997
2 46701  53.0540  81.2308 0000475  71.8856 246.6955 15.37200753  5803
Epoch: 2025-11-04T16:00Z
TLE epoch observation values (Epoch: 2025-11-04T16:00:03.000Z)
Latitude
-32.13074°
Longitude
129.05145°
Altitude
464.484 km
Speed
7.634 km/s
True Right ascension
03h 32m 51s
True Declination
-31° 58' 10"
Sunlit
Object was in full shadow at epoch
Visualization orbit readout
Latitude
Unknown
Longitude
Unknown
Altitude
Unknown
Speed
Unknown
Apparent Right ascension
Unknown
Apparent Declination
Unknown
Sunlit
N/A
Visualization observer readout
Local Sidereal Time
18:55:50
Azimuth
Unknown
Elevation
Unknown
Doppler factor
Unknown
Orbital elements
Apogee altitude
454.99 km
Perigee altitude
454.341 km
Semi-major axis
6,832.803 km
Eccentricity
0.00005
Inclination
53.054°
RAAN
81.2308°
Arg. of periapsis
71.8856°
True anomaly
246.6905°
Mean anomaly
246.6955°
Eccentric anomaly
246.693°
Mean motion
3.84277 °/min
Orbital period
93.68 mins
BSTAR
0.037167
Loading maneuver chart data...
Computing Atmospheric mass density...

Documentation

Showing up to 5 results
|